Location: Corcelles
(46.1547°N, 4.7234°E)
Time: 03:02:54
(UTC+00:00)

Spot 4 Rocket - Pass Details

Date: 14 July 2020
Orbit: 777 x 781 km, 98.7° (Epoch: 06 August)

Event Time Altitude Azimuth Distance (km) Brightness Sun altitude
Rises 03:02:52 0° 13° (NNE) 3,273 8.3 -9.0°
Reaches altitude 10° 03:05:12 10° 12° (NNE) 2,341 7.5 -8.8°
Maximum altitude 03:10:22 79° 286° (WNW) 800 4.1 -8.1°
Drops below altitude 10° 03:15:29 10° 201° (SSW) 2,327 6.0 -7.5°
Enters shadow 03:16:29 - 201° (SSW) 2,723 6.3 -7.3°
